Torna al catalogo

KUIPER-00178

AttivoComunicazioniLEO
NORAD 67767·PAYLOAD·🇺🇸 United States

Lanciato Feb 12, 2026 da Guiana Space Centre

Loading…

Prossimi Passaggi (prossime 24 ore)

TLE

AggiornatoSource: CelesTrak SupGP

Epoca: Sep 14, 2026, 20:10 UTC

1 67767C 26030D   26257.84063657  .00003528  00000+0  46187-3 0  2578
2 67767  51.8987  96.6833 0000708 102.9033  98.1540 14.79926843    12

Traccia KUIPER-00178 in tempo reale con AllMySat

Download on the App Store